loading
|

STARLINK-32034, 60297

Orbit data source: Space-Track

STARLINK-32034, 60297 is a payload satellite owned by SpaceX/Seattle (US) in LEO that was launched on Sun, 28 Jul 2024 UTC via an FALCON 9 launch vehicle from the Air Force Eastern Test Range (AFETR). Payloads include a variety of satellites, spacecraft, and rockets equipped with specific instruments for various scientific and technological missions. These include communications satellites like Starlink; space stations such as the ISS; scientific satellites like the Hubble; Earth observation satellites from companies like Planet Labs, Umbra, and HawkEye 360; GPS; miniature CubeSats for education and research; and military/defense satellites.

Loading next visibility...
Loading greatness...
STARLINK-32034 details
Identifier
60297, 2024-132V
Orbit
LEO
Last TLE update7 hours ago
Origin
Flag of USSpaceX/Seattle (US)
ManufacturerSpaceX/Seattle
Mission statusOperational
MissionUnknown
Bus & MotorSTARLINK V2M, Unknown motor
Mass750 kg wet, ~700 kg dry
Launch date (UTC)
2024-07-28 (2 months ago)
Launch vehicle
FALCON 9
Launch site
Air Force Eastern Test Range (AFETR)
Object type
Payload
Rocket body
Debris
Radar Cross SectionLarge (>1 m²)

Expand to show TLE details & history

TLE from 7 hours ago
0 STARLINK-32034
1 60297U 24132V   24261.63086469  .00061657  00000-0  15359-2 0  9993
2 60297  53.1600  32.1990 0001353  96.6233 263.4926 15.39680802  9177
Epoch: 2024-09-17T15:08Z
Definitive object data (Epoch: 2024-09-17T15:08:26.709Z)
Latitude-0°
Longitude168.04495°
Altitude448.061 km
Speed7.645 km/s
True Right ascension02h 08m 47s
True Declination0° 00' 00"
Sunlit
Object was in full shadow at TLE epoch
Predictive object data (real-time)
Latitude-52.83865°
Longitude87.18844°
Altitude466.216 km
Speed7.632 km/s
Apparent Right ascension00h 26m 42s
Apparent Declination-58° 16' 06"
Sunlit
Object is in full shadow
Predictive observer data (real-time)
Local Sidereal Time15:22:59
Azimuth138.25° SSE
Elevation-56.676°
Doppler factor1
Orbital elements
Apogee448.233 km
Perigee446.386 km
Semi-major axis6,825.447 km
Eccentricity0.0001353
Inclination53.16°
RAAN32.199°
Arg. of periapsis96.6233°
True anomaly263.4772°
Mean anomaly263.4926°
Eccentric anomaly263.4849°
Mean motion3.84899 °/min
BSTAR0.0015359
Period93.53 mins
No data available

STARLINK-32034 Visibility forecast

Observer location: 39.9160978°, -105.1181434

STARLINK-32034 is not visible in the next 10 days
Span
Click to sort rows by Start time (UTC) header in descending order
Start Az.
Max El. time (UTC)
Max El. Az.
Max El.
End time (UTC)
End Az.